Location: Chapleau
(47.8423°N, 83.4026°W)
Time: 06:09:10
(UTC-04:00)

ISS - Visible Passes

Search period start: 07 July 2020 00:00
Search period end: 17 July 2020 00:00
Orbit: 417 x 421 km, 51.6° (Epoch: 07 July)

Date Brightness Start Highest point End Pass type
(mag) Time Alt. Az. Time Alt. Az. Time Alt. Az.
07 Jul -3.9 02:49:29 60° SSW 02:49:54 70° SSE 02:53:15 10° ENE visible
07 Jul -2.7 04:23:36 10° W 04:26:51 44° N 04:30:06 10° ENE visible
08 Jul -2.8 02:03:17 35° E 02:03:17 35° E 02:05:35 10° ENE visible
08 Jul -3.0 03:36:12 12° W 03:39:09 51° NNW 03:42:27 10° ENE visible
09 Jul -1.5 01:17:01 15° E 01:17:01 15° E 01:17:50 10° E visible
09 Jul -3.4 02:49:56 29° W 02:51:28 64° NNW 02:54:49 10° ENE visible
09 Jul -2.4 04:25:23 10° WNW 04:28:36 41° N 04:31:49 10° ENE visible
10 Jul -3.8 02:03:34 75° W 02:03:48 84° NNW 02:07:10 10° ENE visible
10 Jul -2.5 03:37:38 10° WNW 03:40:51 41° N 03:44:04 10° ENE visible
11 Jul -3.1 01:17:04 44° E 01:17:04 44° E 01:19:31 10° ENE visible
11 Jul -2.6 02:49:58 11° W 02:53:07 44° N 02:56:22 10° ENE visible
11 Jul -2.8 04:27:00 10° WNW 04:30:16 50° NNE 04:33:34 10° E visible
12 Jul -2.1 00:30:20 23° E 00:30:20 23° E 00:31:48 10° ENE visible
12 Jul -3.0 02:03:12 19° W 02:05:22 51° NNW 02:08:41 10° ENE visible
12 Jul -2.5 03:39:17 10° WNW 03:42:32 44° N 03:45:47 10° E visible
12 Jul -1.9 23:42:57 17° E 23:42:57 17° E 23:44:00 10° E visible
13 Jul -3.4 01:15:44 23° W 01:17:39 64° NNW 01:21:00 10° ENE visible
13 Jul -2.4 02:51:33 10° WNW 02:54:46 41° N 02:57:59 10° ENE visible
13 Jul -3.7 04:28:27 10° WNW 04:31:50 81° NNE 04:35:11 10° ESE visible
13 Jul -2.5 22:50:53 10° S 22:53:27 21° SE 22:56:03 10° E visible
14 Jul -3.8 00:26:34 10° WSW 00:29:56 84° NNW 00:33:19 10° ENE visible
14 Jul -2.5 02:03:46 10° WNW 02:06:59 41° N 02:10:12 10° ENE visible
14 Jul -3.2 03:40:46 10° WNW 03:44:07 61° NNE 03:47:27 10° E visible
14 Jul -1.9 22:04:15 10° SSE 22:05:58 13° SE 22:07:42 10° ESE visible
14 Jul -3.9 23:38:55 10° SW 23:42:15 69° SSE 23:45:37 10° ENE visible
15 Jul -2.6 01:15:57 10° W 01:19:12 45° N 01:22:27 10° ENE visible
15 Jul -2.8 02:53:04 10° WNW 02:56:22 50° NNE 02:59:39 10° E visible
15 Jul -3.6 04:29:55 10° WNW 04:33:12 50° SSW 04:36:27 10° SE visible
15 Jul -3.5 22:51:23 10° SW 22:54:37 46° SSE 22:57:51 10° ENE visible
16 Jul -2.9 00:28:07 10° W 00:31:25 52° NNW 00:34:43 10° ENE visible
16 Jul -2.6 02:05:20 10° WNW 02:08:34 44° N 02:11:49 10° E visible
16 Jul -3.9 03:42:11 10° WNW 03:45:32 74° SSW 03:48:52 10° ESE visible
16 Jul -3.0 22:04:00 10° SSW 22:07:00 31° SE 22:10:01 10° E visible
16 Jul -3.3 23:40:18 10° W 23:43:39 64° NNW 23:47:00 10° ENE visible
